Weather in Solnechnogorskoye

Russia / Republic of Crimea     44°44′53″N   34°32′24″E
temp.,
°C
wind,
m/s
gust,
m/s
humid.,
%
clouds,
%
prec.,
mm/h
press.,
hPa
HPBL,
m
18 may, tue
tue1800:00+12sw229013 0.6 100936
03:00+12ene119445 0.6 1009139
06:00+12w018894 0.0 100988
09:00+13sse238618 0.0 1009267
12:00+14sse248247 0.0 1009372
15:00+14sse238245 0.1 1008340
18:00+13se2295100 0.5 1008232
21:00+13wnw3488100 3.3 1008187
19 may, wed
wed1900:00+12w3679100 0.0 1008189
03:00+12wnw388357 0.1 1008404
06:00+12w4107812 0.0 1008688
09:00+14wsw5969100 0.1 1009696
12:00+14w51076100 0.1 1011846
15:00+14wsw597640 0.1 1011575
18:00+14wsw367326 0.1 1012560
21:00+12wnw3379100 0.1 101426
20 may, thu
thu2000:00+12wnw117451 0.0 101419
03:00+11sse1183100 0.0 101350
06:00+11nnw11795 0.0 101349
09:00+15e1260100 0.0 1012199
12:00+16ese2357100 0.0 1012320
15:00+16e246311 0.0 1011341
18:00+16e23575 0.0 1010206
21:00+15ne22525 0.0 101015
21 may, fri
fri2100:00+15nnw224622 0.0 101011
03:00+15nnw224512 0.0 100911
06:00+15nw435119 0.0 100923
09:00+18ese115246 0.0 1009148
12:00+20se0247100 0.0 1009513
15:00+20sw12412 0.0 1009562
18:00+21n125587 0.0 1008284
21:00+17nnw447418 0.0 100839
22 may, sat
sat2200:00+16wnw235799 0.0 100812
03:00+17nw66480 0.0 100550
06:00+16nnw337240 0.0 100624
09:00+19e1274100 0.0 1006210
12:00+18ese2178100 0.0 1008319
15:00+19ese017695 0.0 1007348
18:00+21e227365 0.0 1007162
21:00+18wnw2283100 0.1 100917